Location: Unspecified
(0.0000°N, 0.0000°E)
Time: 20:15:07
(UTC+00:00)

SR - Pass Details

Date: 22 June 2025
Orbit: 572 x 853 km, 66.7° (Epoch: 13 July)

Event Time Altitude Azimuth Distance (km) Brightness Sun altitude
Rises 13:08:56 0° 165° (SSE) 3,287 ? 61.5°
Reaches altitude 10° 13:12:31 10° 141° (SE) 2,404 ? 61.0°
Maximum altitude 13:15:25 14° 109° (ESE) 2,140 ? 60.6°
Drops below altitude 10° 13:18:21 10° 78° (ENE) 2,455 ? 60.1°
Sets 13:22:03 0° 55° (NE) 3,404 ? 59.6°
